When you browse on this site, cookies collect data to enhance your experience and personalize the content and advertising you see.
Visit our Privacy Policy to learn more. By continuing to use the site, you agree to this use of cookies and data.

Meteo orario Torez

Oggi, 27 Settembre, Domenica

Tempo Temperatura Precipitazioni Vento Pressione Umidità
00:00 +20°C° 0 mm 7 m/s 742 mm Hg 40%
01:00 +18°C° 0 mm 8 m/s 742 mm Hg 41%
02:00 +17°C° 0 mm 8 m/s 742 mm Hg 43%
03:00 +16°C° 0 mm 7 m/s 742 mm Hg 45%
04:00 +16°C° 0 mm 7 m/s 743 mm Hg 47%
05:00 +15°C° 0 mm 7 m/s 743 mm Hg 49%
06:00 +14°C° 0 mm 7 m/s 743 mm Hg 51%
07:00 +15°C° 0 mm 8 m/s 743 mm Hg 50%
08:00 +16°C° 0 mm 8 m/s 743 mm Hg 49%
09:00 +17°C° 0 mm 9 m/s 744 mm Hg 47%
10:00 +19°C° 0 mm 9 m/s 744 mm Hg 42%
11:00 +22°C° 0 mm 9 m/s 744 mm Hg 37%
12:00 +24°C° 0 mm 10 m/s 744 mm Hg 33%
13:00 +24°C° 0 mm 10 m/s 744 mm Hg 32%
14:00 +26°C° 0 mm 9 m/s 744 mm Hg 30%
15:00 +27°C° 0 mm 9 m/s 744 mm Hg 29%
16:00 +26°C° 0 mm 8 m/s 744 mm Hg 31%
17:00 +24°C° 0 mm 8 m/s 744 mm Hg 33%
18:00 +23°C° 0 mm 7 m/s 744 mm Hg 35%
19:00 +23°C° 0 mm 7 m/s 744 mm Hg 36%
20:00 +22°C° 0 mm 8 m/s 744 mm Hg 37%
21:00 +21°C° 0 mm 8 m/s 745 mm Hg 38%
22:00 +20°C° 0.3 mm 8 m/s 745 mm Hg 43%
23:00 +18°C° 0.3 mm 7 m/s 745 mm Hg 48%

Domani, 28 Settembre, Lunedi

Tempo Temperatura Precipitazioni Vento Pressione Umidità
00:00 +17°C° 0.3 mm 7 m/s 745 mm Hg 52%
01:00 +17°C° 0.5 mm 7 m/s 745 mm Hg 57%
02:00 +16°C° 0.5 mm 7 m/s 746 mm Hg 61%
03:00 +15°C° 0.5 mm 7 m/s 746 mm Hg 66%
04:00 +15°C° 0.2 mm 6 m/s 746 mm Hg 69%
05:00 +14°C° 0.2 mm 6 m/s 746 mm Hg 71%
06:00 +13°C° 0.2 mm 6 m/s 747 mm Hg 74%
07:00 +14°C° 0 mm 6 m/s 747 mm Hg 68%
08:00 +15°C° 0 mm 6 m/s 747 mm Hg 62%
09:00 +16°C° 0 mm 6 m/s 747 mm Hg 57%
10:00 +19°C° 0 mm 6 m/s 747 mm Hg 51%
11:00 +20°C° 0 mm 6 m/s 748 mm Hg 45%
12:00 +22°C° 0 mm 6 m/s 748 mm Hg 39%
13:00 +23°C° 0 mm 6 m/s 747 mm Hg 36%
14:00 +24°C° 0 mm 6 m/s 747 mm Hg 33%
15:00 +26°C° 0 mm 6 m/s 747 mm Hg 30%
16:00 +24°C° 0 mm 6 m/s 747 mm Hg 31%
17:00 +23°C° 0 mm 5 m/s 747 mm Hg 33%
18:00 +22°C° 0 mm 5 m/s 747 mm Hg 35%
19:00 +21°C° 0 mm 6 m/s 747 mm Hg 37%
20:00 +21°C° 0 mm 6 m/s 747 mm Hg 39%
21:00 +20°C° 0 mm 7 m/s 747 mm Hg 41%
22:00 +18°C° 0 mm 7 m/s 747 mm Hg 44%
23:00 +17°C° 0 mm 7 m/s 747 mm Hg 46%

Dopodomani, 29 Settembre, Martedi

Tempo Temperatura Precipitazioni Vento Pressione Umidità
00:00 +17°C° 0 mm 7 m/s 747 mm Hg 48%
01:00 +16°C° 0 mm 6 m/s 747 mm Hg 50%
02:00 +15°C° 0 mm 6 m/s 747 mm Hg 51%
03:00 +14°C° 0 mm 6 m/s 747 mm Hg 53%
04:00 +13°C° 0 mm 6 m/s 747 mm Hg 56%
05:00 +11°C° 0 mm 6 m/s 747 mm Hg 60%
06:00 +11°C° 0 mm 7 m/s 746 mm Hg 63%
07:00 +12°C° 0 mm 7 m/s 746 mm Hg 62%
08:00 +12°C° 0 mm 7 m/s 746 mm Hg 61%
09:00 +13°C° 0 mm 8 m/s 746 mm Hg 60%
10:00 +16°C° 0 mm 8 m/s 746 mm Hg 53%
11:00 +17°C° 0 mm 8 m/s 746 mm Hg 47%
12:00 +20°C° 0 mm 8 m/s 746 mm Hg 40%
13:00 +21°C° 0 mm 8 m/s 745 mm Hg 37%
14:00 +22°C° 0 mm 8 m/s 745 mm Hg 33%
15:00 +23°C° 0 mm 8 m/s 745 mm Hg 30%
16:00 +22°C° 0 mm 8 m/s 744 mm Hg 31%
17:00 +22°C° 0 mm 7 m/s 744 mm Hg 31%
18:00 +21°C° 0 mm 7 m/s 743 mm Hg 32%
19:00 +21°C° 0 mm 7 m/s 743 mm Hg 32%
20:00 +21°C° 0 mm 7 m/s 743 mm Hg 33%
21:00 +20°C° 0 mm 8 m/s 742 mm Hg 33%
22:00 +20°C° 0 mm 8 m/s 742 mm Hg 36%
23:00 +18°C° 0 mm 8 m/s 742 mm Hg 38%

30 Settembre, Mercoledi

Tempo Temperatura Precipitazioni Vento Pressione Umidità
00:00 +17°C° 0 mm 8 m/s 741 mm Hg 41%
01:00 +16°C° 0 mm 8 m/s 741 mm Hg 43%
02:00 +16°C° 0 mm 8 m/s 741 mm Hg 46%
03:00 +15°C° 0 mm 8 m/s 741 mm Hg 48%
04:00 +15°C° 0 mm 8 m/s 741 mm Hg 48%
05:00 +13°C° 0 mm 9 m/s 741 mm Hg 49%
06:00 +13°C° 0 mm 9 m/s 740 mm Hg 49%
07:00 +13°C° 0 mm 9 m/s 740 mm Hg 49%
08:00 +13°C° 0 mm 10 m/s 740 mm Hg 49%
09:00 +14°C° 0 mm 10 m/s 740 mm Hg 49%
10:00 +16°C° 0 mm 11 m/s 740 mm Hg 45%
11:00 +18°C° 0 mm 11 m/s 740 mm Hg 41%
12:00 +19°C° 0 mm 11 m/s 739 mm Hg 37%
13:00 +21°C° 0 mm 11 m/s 739 mm Hg 34%
14:00 +22°C° 0 mm 11 m/s 739 mm Hg 30%
15:00 +23°C° 0 mm 11 m/s 738 mm Hg 26%
16:00 +23°C° 0 mm 11 m/s 738 mm Hg 27%
17:00 +22°C° 0 mm 10 m/s 738 mm Hg 27%
18:00 +22°C° 0 mm 10 m/s 738 mm Hg 28%
19:00 +21°C° 0.1 mm 10 m/s 738 mm Hg 30%
20:00 +21°C° 0.1 mm 10 m/s 738 mm Hg 32%
21:00 +19°C° 0.1 mm 11 m/s 738 mm Hg 34%
22:00 +18°C° 0.4 mm 10 m/s 739 mm Hg 40%
23:00 +17°C° 0.4 mm 10 m/s 739 mm Hg 45%

1 Ottobre, Giovedi

Tempo Temperatura Precipitazioni Vento Pressione Umidità
00:00 +15°C° 0.4 mm 9 m/s 739 mm Hg 51%
01:00 +15°C° 0.1 mm 9 m/s 739 mm Hg 52%
02:00 +15°C° 0.1 mm 9 m/s 739 mm Hg 52%
03:00 +15°C° 0.1 mm 8 m/s 739 mm Hg 53%
04:00 +13°C° 0.3 mm 8 m/s 739 mm Hg 58%
05:00 +12°C° 0.3 mm 8 m/s 739 mm Hg 63%
06:00 +12°C° 0.3 mm 8 m/s 740 mm Hg 68%
07:00 +13°C° 0.2 mm 8 m/s 740 mm Hg 63%
08:00 +15°C° 0.2 mm 8 m/s 740 mm Hg 58%
09:00 +16°C° 0.2 mm 8 m/s 740 mm Hg 52%
10:00 +16°C° 0 mm 8 m/s 740 mm Hg 51%
11:00 +17°C° 0 mm 8 m/s 740 mm Hg 50%
12:00 +18°C° 0 mm 8 m/s 740 mm Hg 48%
13:00 +18°C° 0 mm 8 m/s 740 mm Hg 48%
14:00 +18°C° 0 mm 8 m/s 740 mm Hg 48%
15:00 +20°C° 0 mm 8 m/s 740 mm Hg 48%
16:00 +20°C° 0.1 mm 7 m/s 740 mm Hg 45%
17:00 +20°C° 0.1 mm 6 m/s 740 mm Hg 43%
18:00 +20°C° 0.1 mm 5 m/s 740 mm Hg 41%
19:00 +19°C° 0 mm 6 m/s 740 mm Hg 41%
20:00 +18°C° 0 mm 7 m/s 740 mm Hg 41%
21:00 +17°C° 0 mm 9 m/s 740 mm Hg 41%
22:00 +17°C° 0.2 mm 8 m/s 740 mm Hg 41%
23:00 +16°C° 0.2 mm 7 m/s 740 mm Hg 41%

2 Ottobre, Venerdi

Tempo Temperatura Precipitazioni Vento Pressione Umidità
00:00 +16°C° 0.2 mm 6 m/s 741 mm Hg 42%
01:00 +15°C° 0 mm 6 m/s 740 mm Hg 43%
02:00 +15°C° 0 mm 6 m/s 740 mm Hg 44%
03:00 +14°C° 0 mm 7 m/s 740 mm Hg 46%
04:00 +14°C° 0 mm 7 m/s 741 mm Hg 48%
05:00 +14°C° 0 mm 7 m/s 741 mm Hg 51%
06:00 +14°C° 0 mm 7 m/s 741 mm Hg 54%
07:00 +14°C° 0 mm 7 m/s 741 mm Hg 52%
08:00 +14°C° 0 mm 7 m/s 741 mm Hg 51%
09:00 +15°C° 0 mm 8 m/s 741 mm Hg 50%
10:00 +17°C° 0 mm 8 m/s 741 mm Hg 46%
11:00 +18°C° 0 mm 8 m/s 741 mm Hg 41%
12:00 +21°C° 0 mm 8 m/s 741 mm Hg 36%
13:00 +22°C° 0 mm 8 m/s 741 mm Hg 35%
14:00 +23°C° 0 mm 8 m/s 740 mm Hg 34%
15:00 +23°C° 0 mm 8 m/s 740 mm Hg 34%
16:00 +23°C° 0 mm 7 m/s 740 mm Hg 36%
17:00 +22°C° 0 mm 6 m/s 740 mm Hg 38%
18:00 +21°C° 0 mm 5 m/s 740 mm Hg 41%
19:00 +20°C° 0.2 mm 5 m/s 741 mm Hg 47%
20:00 +19°C° 0.2 mm 6 m/s 741 mm Hg 54%
21:00 +17°C° 0.2 mm 6 m/s 741 mm Hg 60%
22:00 +16°C° 0.4 mm 6 m/s 741 mm Hg 59%
23:00 +16°C° 0.4 mm 7 m/s 741 mm Hg 57%
Mostrare altro